SCP
0 0 0 0 0 0 0 0 0 0 0 0 0 0 0 0 0 0 0 0 0 0 0 0 0 0 0 0 0 0 -0 0 0 0 0 -0 -0 -0
0 0 0 0 0 0 0 0 0 0 0 0 0 0 0 0 0 0 0 0 0 0 0 0 0 0 0 0 0 0 -0 0 0 0 0 0 -0 0
0 0 0 0 0 0 0 0 0 0 0 0 0 0 0 0 0 0 0 0 0 0 0 0 0 0 0 0 0 0 0 0 0 0 0 0 0 0
0 0 0 0 0 0 0 0 0 0 0 0 0 0 0 0 0 0 0 0 0 0 0 0 0 0 0 0 0 0 0 0 0 0 0 0 0 0
0 0 0 0 0 0 0 0 0 0 0 0 0 0 0 0 0 0 0 0 0 0 0 0 0 0 0 0 0 0 0 0 0 0 0 0 0 0
0 0 0 0 0 0 0 0 0 0 0 0 0 0 0 0 0 0 0 0 0 0 0 0 0 0 0 0 0 0 0 0 0 0 0 0 0 0
0 0 0 0 0 0 0 0 0 0 0 0 0 0 0 0 0 0 0 0 0 0 0 0 0 0 0 0 0 0 0 0 0 0 0 0 0 0
0 0 0 0 0 0 0 0 0 0 0 0 0 0 0 0 0 0 0 0 0 0 0 0 0 0 0 0 0 0 0 0 0 0 0 0 0 0
0 0 0 0 0 0 0 0 0 0 0 0 0 0 0 0 0 0 0 0 0 0 0 0 0 0 0 0 0 0 0 0 0 0 0 0 0 0
0 0 0 0 0 0 0 0 0 0 0 0 0 0 0 0 0 0 0 0 0 0 0 0 0 0 0 0 0 0 0 0 0 0 0 0 0 0
0 0 0 0 0 0 0 0 0 0 0 0 0 0 0 0 0 0 0 0 0 0 0 0 0 0 0 0 0 0 0 0 0 0 -0 0 0 0
0 0 0 0 0 0 0 0 0 0 0 0 0 0 0 0 0 0 0 0 0 0 0 0 0 0 0 0 0 0 0 0 0 0 0 0 0 0
0 0 0 -0 -0 0 0 -0 0 0 0 0 0 0 0 0 0 0 0 0 0 0 0 0 0 0 0 0 0 0 0 0 0 0 0 0 0 0
0 0 0 -0 0 0 0 -0 -0 0 0 0 0 0 0 0 0 0 0 0 0 0 0 0 0 0 0 0 0 0 0 0 0 0 0 0 0 0
0 0 -0 0 0 0 0 -0 -0 0 0 0 0 0 0 0 0 0 0 0 0 0 0 0 0 0 0 0 0 0 0 0 0 0 0 0 0 0
0 0 0 0 0 0 0 0 0 0 0 0 0 0 0 0 0 0 0 0 0 0 0 0 0 0 0 0 0 0 0 0 0 0 0 0 0 0
0 0 0 0 0 0 0 0 0 0 0 0 0 0 0 0 0 0 0 0 0 0 0 0 0 0 0 0 0 0 0 0 0 0 0 0 0 0
0 0 0 0 0 0 0 0 0 0 0 0 0 0 0 0 0 0 0 0 0 0 0 0 0 0 0 0 0 0 0 0 0 0 0 0 0 0
0 0 0 -0 -0 -0 -0 -0 0 0 0 0 0 0 0 0 0 0 0 0 0 0 0 0 0 0 0 0 0 0 0 0 0 0 0 0 0 0
0 0 0 0 -0 -0 -0 -0 0 0 0 0 0 0 0 0 0 0 0 0 0 0 0 0 0 0 0 0 0 0 0 0 0 0 0 0 0 0
0 0 0 0 0 -0 -0 -0 -0 -0 0 0 0 0 0 0 0 0 0 0 0 0 -0 0 0 0 0 0 0 0 0 0 0 0 0 0 0 0
0 0 0 0 -0 -0 -0 -0 -0 0 0 0 -0 -0 -0 0 0 0 0 0 0 0 0 0 0 0 0 0 0 0 0 0 0 0 0 0 0 0
0 -0 0 0 0 -0 -0 0 0 0 0 0 -0 -0 -0 -0 0 0 0 0 -0 0 0 0 0 0 0 0 0 0 0 0 0 0 0 0 0 0
Wind_Speed_500mb
31 31 26 24 25 26 24 20 21 17 16 10 12 12 18 15 19 31 30 29 28 32 35 34 33 29 36 39 38 39 36 39 30 22 25 25 29 31
35 29 26 24 26 27 23 22 23 19 12 9 10 14 12 14 15 21 32 31 29 33 32 30 29 28 36 37 44 47 32 34 34 23 24 23 27 31
33 29 25 26 28 26 23 24 22 19 19 14 12 9 9 18 17 20 31 29 31 32 29 27 28 33 31 31 33 37 28 29 36 25 24 24 28 31
30 28 27 29 29 25 24 23 21 20 18 13 8 11 6 27 18 26 29 29 33 32 31 28 28 30 31 27 31 33 32 27 26 27 26 25 26 28
25 25 27 30 28 26 24 24 23 22 19 13 10 22 23 23 24 25 28 30 34 33 31 24 18 25 38 41 35 40 35 28 23 24 24 23 26 29
23 23 27 28 28 27 28 25 24 26 24 20 16 27 31 24 27 31 33 34 35 34 32 28 28 28 24 36 37 36 34 25 25 25 24 24 28 28
23 23 26 27 28 29 29 28 28 29 29 27 26 33 39 34 32 34 35 38 37 34 34 32 32 27 29 33 37 29 25 25 25 24 24 27 28 28
26 26 30 31 32 34 33 31 27 30 31 28 33 44 46 41 35 37 41 40 42 39 41 36 30 32 34 35 32 33 27 25 22 24 25 26 27 26
30 30 29 29 29 26 32 34 31 31 25 17 21 39 41 44 41 41 46 48 46 43 35 37 33 33 30 35 33 28 26 23 23 25 24 23 27 26
24 23 19 25 23 27 30 35 32 31 31 21 15 24 27 34 36 33 37 42 40 43 41 41 37 34 33 33 31 29 26 24 26 25 26 27 28 28
18 19 23 24 27 27 24 26 36 35 32 23 16 19 21 23 33 33 45 48 50 49 47 39 42 39 33 32 30 30 28 26 27 26 26 28 30 32
15 17 23 22 20 21 26 28 33 34 31 31 27 27 26 24 25 23 33 44 50 44 48 42 42 39 31 34 32 31 30 30 30 29 30 31 32 35
16 18 23 25 22 18 21 21 20 25 29 29 29 32 36 32 28 25 26 35 39 38 43 50 41 44 32 20 35 33 29 29 33 31 32 35 35 37
20 19 21 23 20 16 22 28 25 23 27 29 34 37 36 35 32 26 23 26 29 30 6 49 45 39 44 33 23 19 25 31 42 40 35 34 34 35
22 25 20 18 23 29 26 25 23 23 22 27 33 36 31 33 31 26 23 29 31 27 25 8 41 30 34 34 32 28 27 24 23 28 28 29 31 34
28 30 28 31 31 30 29 21 16 13 16 21 28 29 33 37 30 27 30 30 26 24 21 17 17 37 25 26 33 31 27 18 14 16 21 24 25 29
32 39 37 38 38 32 27 18 17 16 14 19 25 32 37 36 35 32 30 30 29 28 25 23 17 29 33 31 33 35 31 33 27 26 29 30 30 32
33 42 40 42 36 31 23 17 14 15 16 23 26 32 32 31 31 30 30 30 30 26 25 21 21 25 27 28 30 27 28 29 25 27 30 33 32 21
29 40 43 35 29 24 18 13 15 17 19 28 26 30 31 31 26 27 24 25 27 29 24 15 12 18 21 25 19 21 22 17 14 16 22 30 35 31
28 34 38 33 26 22 14 16 16 19 22 26 26 31 30 26 27 26 22 18 22 25 26 21 15 13 16 22 25 13 14 15 22 29 33 37 38 36
30 28 27 23 25 18 18 19 19 18 20 22 25 27 30 25 24 24 22 19 22 20 24 22 16 17 21 24 27 22 22 27 30 33 34 38 41 43
29 24 27 27 24 18 15 11 16 18 17 18 27 27 30 27 26 23 17 17 16 15 16 17 18 20 24 29 31 35 34 35 37 39 41 38 36 32
26 26 27 24 19 14 13 10 9 9 11 13 15 22 27 27 26 19 17 18 17 15 16 20 24 25 28 34 38 39 38 37 42 40 30 25 19 21
Wind_Direction_500mb
224 226 235 232 230 243 247 249 250 267 282 305 260 272 251 260 244 220 226 221 214 200 200 205 209 202 198 190 187 181 191 186 181 172 175 171 165 164
218 221 226 228 234 239 241 244 252 250 246 292 283 265 259 233 227 206 197 191 192 195 196 203 210 198 194 198 198 188 195 191 186 182 178 174 171 172
212 220 227 231 235 235 230 238 244 240 249 263 271 252 235 222 189 193 177 179 185 186 188 196 191 194 192 185 191 167 190 187 186 185 182 177 176 178
217 226 231 232 229 225 224 236 234 235 235 237 246 193 136 152 159 161 167 178 181 183 184 188 190 194 186 171 181 178 172 179 186 181 185 181 178 181
223 230 233 228 223 226 227 235 229 228 219 232 213 188 162 173 165 162 163 161 164 173 172 174 192 201 197 171 182 179 185 190 183 182 188 182 187 190
216 223 225 226 231 236 234 234 228 223 218 217 213 194 180 172 175 172 165 163 158 166 166 158 157 156 174 182 182 188 179 186 185 185 194 191 194 197
218 225 227 231 233 234 231 228 223 217 215 215 213 196 188 182 180 173 164 165 158 164 165 168 170 170 165 181 183 187 189 188 187 193 198 199 203 202
234 237 238 237 236 235 229 217 220 221 216 215 211 191 196 193 182 173 162 159 148 161 162 157 165 168 173 179 181 190 203 189 189 200 208 210 213 214
244 245 241 237 234 234 227 217 211 212 214 237 240 206 199 194 186 175 172 168 164 167 172 158 171 177 181 188 195 204 200 195 204 210 218 226 227 228
238 236 222 222 226 230 225 224 209 205 205 206 222 218 211 192 189 184 186 180 173 168 174 174 177 187 195 200 203 202 206 208 216 221 229 238 238 238
231 222 207 219 225 222 211 214 203 202 195 184 184 200 188 192 187 187 184 184 173 175 183 185 187 191 201 207 209 210 215 218 227 232 241 242 239 242
220 206 194 203 199 213 202 181 181 182 180 173 181 173 182 181 192 202 204 191 185 182 190 197 194 195 199 212 217 226 227 230 237 245 252 245 240 245
183 166 172 182 186 192 177 172 179 175 178 182 182 174 170 176 180 189 205 215 202 190 199 199 207 199 201 217 229 231 234 244 247 256 254 242 242 252
171 166 163 174 182 187 186 178 175 182 178 183 181 181 182 182 185 193 204 202 212 210 226 211 213 220 214 219 223 228 244 262 252 255 252 246 247 256
167 163 164 169 157 139 140 157 166 181 186 189 191 191 191 184 189 193 192 190 203 222 220 237 221 222 228 241 239 238 262 265 256 242 236 242 255 263
167 165 165 158 149 152 152 153 156 157 179 189 191 188 181 182 190 183 180 184 195 208 216 226 224 221 233 239 234 241 247 240 250 235 240 252 262 269
170 165 164 164 158 160 155 158 155 156 156 166 170 177 179 178 181 187 192 198 208 213 213 215 222 221 238 246 246 240 242 245 250 260 267 272 269 273
179 163 166 163 164 166 168 174 175 171 169 170 169 176 179 181 187 194 203 211 215 212 196 210 233 242 244 246 247 250 249 256 263 270 277 283 290 295
169 166 161 159 165 175 182 189 177 170 173 177 179 181 181 185 194 200 202 199 204 203 199 211 229 226 241 258 266 270 273 280 281 284 292 295 297 295
168 162 167 167 174 174 182 180 172 167 171 174 181 187 186 193 191 196 194 195 198 201 210 227 248 255 274 292 302 295 289 293 300 303 308 308 302 299
171 165 166 163 164 166 178 173 173 173 178 185 187 193 199 204 197 199 210 217 222 236 227 234 250 269 284 290 295 305 301 309 309 309 304 304 302 296
170 157 156 152 143 153 154 159 175 187 187 180 194 206 207 214 209 217 237 226 207 199 223 244 267 279 281 285 291 291 291 299 306 305 302 298 293 294
143 152 152 158 162 166 172 168 154 159 170 177 181 192 199 203 211 212 203 204 210 224 257 278 292 287 282 286 288 291 291 291 294 294 295 295 295 294
Wind_Speed_850mb
31 31 26 24 25 26 24 20 21 17 16 10 12 12 18 15 19 31 30 29 28 32 35 34 33 29 36 39 38 39 36 39 30 22 25 25 29 31
35 29 26 24 26 27 23 22 23 19 12 9 10 14 12 14 15 21 32 31 29 33 32 30 29 28 36 37 44 47 32 34 34 23 24 23 27 31
33 29 25 26 28 26 23 24 22 19 19 14 12 9 9 18 17 20 31 29 31 32 29 27 28 33 31 31 33 37 28 29 36 25 24 24 28 31
30 28 27 29 29 25 24 23 21 20 18 13 8 11 6 27 18 26 29 29 33 32 31 28 28 30 31 27 31 33 32 27 26 27 26 25 26 28
25 25 27 30 28 26 24 24 23 22 19 13 10 22 23 23 24 25 28 30 34 33 31 24 18 25 38 41 35 40 35 28 23 24 24 23 26 29
23 23 27 28 28 27 28 25 24 26 24 20 16 27 31 24 27 31 33 34 35 34 32 28 28 28 24 36 37 36 34 25 25 25 24 24 28 28
23 23 26 27 28 29 29 28 28 29 29 27 26 33 39 34 32 34 35 38 37 34 34 32 32 27 29 33 37 29 25 25 25 24 24 27 28 28
26 26 30 31 32 34 33 31 27 30 31 28 33 44 46 41 35 37 41 40 42 39 41 36 30 32 34 35 32 33 27 25 22 24 25 26 27 26
30 30 29 29 29 26 32 34 31 31 25 17 21 39 41 44 41 41 46 48 46 43 35 37 33 33 30 35 33 28 26 23 23 25 24 23 27 26
24 23 19 25 23 27 30 35 32 31 31 21 15 24 27 34 36 33 37 42 40 43 41 41 37 34 33 33 31 29 26 24 26 25 26 27 28 28
18 19 23 24 27 27 24 26 36 35 32 23 16 19 21 23 33 33 45 48 50 49 47 39 42 39 33 32 30 30 28 26 27 26 26 28 30 32
15 17 23 22 20 21 26 28 33 34 31 31 27 27 26 24 25 23 33 44 50 44 48 42 42 39 31 34 32 31 30 30 30 29 30 31 32 35
16 18 23 25 22 18 21 21 20 25 29 29 29 32 36 32 28 25 26 35 39 38 43 50 41 44 32 20 35 33 29 29 33 31 32 35 35 37
20 19 21 23 20 16 22 28 25 23 27 29 34 37 36 35 32 26 23 26 29 30 6 49 45 39 44 33 23 19 25 31 42 40 35 34 34 35
22 25 20 18 23 29 26 25 23 23 22 27 33 36 31 33 31 26 23 29 31 27 25 8 41 30 34 34 32 28 27 24 23 28 28 29 31 34
28 30 28 31 31 30 29 21 16 13 16 21 28 29 33 37 30 27 30 30 26 24 21 17 17 37 25 26 33 31 27 18 14 16 21 24 25 29
32 39 37 38 38 32 27 18 17 16 14 19 25 32 37 36 35 32 30 30 29 28 25 23 17 29 33 31 33 35 31 33 27 26 29 30 30 32
33 42 40 42 36 31 23 17 14 15 16 23 26 32 32 31 31 30 30 30 30 26 25 21 21 25 27 28 30 27 28 29 25 27 30 33 32 21
29 40 43 35 29 24 18 13 15 17 19 28 26 30 31 31 26 27 24 25 27 29 24 15 12 18 21 25 19 21 22 17 14 16 22 30 35 31
28 34 38 33 26 22 14 16 16 19 22 26 26 31 30 26 27 26 22 18 22 25 26 21 15 13 16 22 25 13 14 15 22 29 33 37 38 36
30 28 27 23 25 18 18 19 19 18 20 22 25 27 30 25 24 24 22 19 22 20 24 22 16 17 21 24 27 22 22 27 30 33 34 38 41 43
29 24 27 27 24 18 15 11 16 18 17 18 27 27 30 27 26 23 17 17 16 15 16 17 18 20 24 29 31 35 34 35 37 39 41 38 36 32
26 26 27 24 19 14 13 10 9 9 11 13 15 22 27 27 26 19 17 18 17 15 16 20 24 25 28 34 38 39 38 37 42 40 30 25 19 21
Wind_Direction_850mb
224 226 235 232 230 243 247 249 250 267 282 305 260 272 251 260 244 220 226 221 214 200 200 205 209 202 198 190 187 181 191 186 181 172 175 171 165 164
218 221 226 228 234 239 241 244 252 250 246 292 283 265 259 233 227 206 197 191 192 195 196 203 210 198 194 198 198 188 195 191 186 182 178 174 171 172
212 220 227 231 235 235 230 238 244 240 249 263 271 252 235 222 189 193 177 179 185 186 188 196 191 194 192 185 191 167 190 187 186 185 182 177 176 178
217 226 231 232 229 225 224 236 234 235 235 237 246 193 136 152 159 161 167 178 181 183 184 188 190 194 186 171 181 178 172 179 186 181 185 181 178 181
223 230 233 228 223 226 227 235 229 228 219 232 213 188 162 173 165 162 163 161 164 173 172 174 192 201 197 171 182 179 185 190 183 182 188 182 187 190
216 223 225 226 231 236 234 234 228 223 218 217 213 194 180 172 175 172 165 163 158 166 166 158 157 156 174 182 182 188 179 186 185 185 194 191 194 197
218 225 227 231 233 234 231 228 223 217 215 215 213 196 188 182 180 173 164 165 158 164 165 168 170 170 165 181 183 187 189 188 187 193 198 199 203 202
234 237 238 237 236 235 229 217 220 221 216 215 211 191 196 193 182 173 162 159 148 161 162 157 165 168 173 179 181 190 203 189 189 200 208 210 213 214
244 245 241 237 234 234 227 217 211 212 214 237 240 206 199 194 186 175 172 168 164 167 172 158 171 177 181 188 195 204 200 195 204 210 218 226 227 228
238 236 222 222 226 230 225 224 209 205 205 206 222 218 211 192 189 184 186 180 173 168 174 174 177 187 195 200 203 202 206 208 216 221 229 238 238 238
231 222 207 219 225 222 211 214 203 202 195 184 184 200 188 192 187 187 184 184 173 175 183 185 187 191 201 207 209 210 215 218 227 232 241 242 239 242
220 206 194 203 199 213 202 181 181 182 180 173 181 173 182 181 192 202 204 191 185 182 190 197 194 195 199 212 217 226 227 230 237 245 252 245 240 245
183 166 172 182 186 192 177 172 179 175 178 182 182 174 170 176 180 189 205 215 202 190 199 199 207 199 201 217 229 231 234 244 247 256 254 242 242 252
171 166 163 174 182 187 186 178 175 182 178 183 181 181 182 182 185 193 204 202 212 210 226 211 213 220 214 219 223 228 244 262 252 255 252 246 247 256
167 163 164 169 157 139 140 157 166 181 186 189 191 191 191 184 189 193 192 190 203 222 220 237 221 222 228 241 239 238 262 265 256 242 236 242 255 263
167 165 165 158 149 152 152 153 156 157 179 189 191 188 181 182 190 183 180 184 195 208 216 226 224 221 233 239 234 241 247 240 250 235 240 252 262 269
170 165 164 164 158 160 155 158 155 156 156 166 170 177 179 178 181 187 192 198 208 213 213 215 222 221 238 246 246 240 242 245 250 260 267 272 269 273
179 163 166 163 164 166 168 174 175 171 169 170 169 176 179 181 187 194 203 211 215 212 196 210 233 242 244 246 247 250 249 256 263 270 277 283 290 295
169 166 161 159 165 175 182 189 177 170 173 177 179 181 181 185 194 200 202 199 204 203 199 211 229 226 241 258 266 270 273 280 281 284 292 295 297 295
168 162 167 167 174 174 182 180 172 167 171 174 181 187 186 193 191 196 194 195 198 201 210 227 248 255 274 292 302 295 289 293 300 303 308 308 302 299
171 165 166 163 164 166 178 173 173 173 178 185 187 193 199 204 197 199 210 217 222 236 227 234 250 269 284 290 295 305 301 309 309 309 304 304 302 296
170 157 156 152 143 153 154 159 175 187 187 180 194 206 207 214 209 217 237 226 207 199 223 244 267 279 281 285 291 291 291 299 306 305 302 298 293 294
143 152 152 158 162 166 172 168 154 159 170 177 181 192 199 203 211 212 203 204 210 224 257 278 292 287 282 286 288 291 291 291 294 294 295 295 295 294